Home > Weather > Tokyo > Past weeks

Flag for Japan Past Weather in Tokyo, Japan — Yesterday and Last 2 Weeks

Now
80 °F

Warm.


Feels Like: 84 °F
Forecast: 74 / 87 °F
Wind: 5 mph from South

Location: Tokyo

Current Time: Jul 28, 2016 at 9:25:04 PM

Latest Report: Jul 28, 2016 at 8:00 PM


Visibility: N/A

Pressure: 29.93 "Hg

Humidity: 73%

Dew Point: 71 °F

Location of TokyoLocation

Past Weather in Tokyo — Graph

°F

Tokyo Temperature Yesterday

Maximum temperature yesterday: 80 °F (at 12:00 PM)
Minimum temperature yesterday: 72 °F (at 12:00 AM)
Average temperature yesterday: 76 °F

High & Low Weather Summary for the Past Weeks

 TemperatureHumidityPressure
High92 °F (Jul 18, 2:00 PM)100% (Jul 13, 8:00 PM)30.01 "Hg (Jul 13, 8:00 PM)
Low67 °F (Jul 24, 3:00 AM)53% (Jul 18, 3:00 PM)29.35 "Hg (Jul 14, 2:00 PM)
Average76 °F82%29.81 "Hg
* Reported Jul 13 8:00 PM — Jul 28 8:00 PM, Tokyo, Weather by CustomWeather, © 2016

Note: Actual official high and low records may vary slightly from our data, if they occured in-between our weather recording intervals... More about our weather records

Advertising

Tokyo Weather History for the Previous 24 Hours

Scroll right to see more
 ConditionsComfort  
Time TempWeatherWind HumidityBarometerVisibility
8:00 PM
Thu, Jul 28
80 °FWarm.5 mph73%29.93 "HgN/A
7:00 PM81 °FWarm.8 mph71%29.91 "HgN/A
6:00 PM83 °FOvercast.7 mph70%29.90 "Hg12 mi
5:00 PM83 °FWarm.7 mph69%29.89 "HgN/A
4:00 PM83 °FWarm.10 mph69%29.88 "HgN/A
3:00 PM85 °FOvercast.9 mph69%29.88 "Hg12 mi
2:00 PM87 °FWarm.10 mph65%29.88 "HgN/A
1:00 PM83 °FWarm.8 mph71%29.89 "HgN/A
12:00 PM83 °FOvercast.7 mph70%29.89 "Hg12 mi
11:00 AM85 °FWarm.7 mph67%29.90 "HgN/A
10:00 AM83 °FWarm.7 mph69%29.91 "HgN/A
9:00 AM83 °FOvercast.5 mph73%29.91 "Hg12 mi
8:00 AM79 °FWarm.7 mph80%29.91 "HgN/A
7:00 AM76 °FMild.5 mph89%29.91 "HgN/A
6:00 AM76 °FOvercast.5 mph89%29.90 "Hg9 mi
5:00 AM76 °FMild.3 mph88%29.90 "HgN/A
4:00 AM74 °FMild.5 mph90%29.89 "HgN/A
3:00 AM74 °FOvercast.5 mph91%29.88 "Hg12 mi
2:00 AM75 °FMild.5 mph88%29.88 "HgN/A
1:00 AM75 °FMild.7 mph86%29.89 "HgN/A
12:00 AM75 °FMild.2 mph85%29.89 "HgN/A
11:00 PM
Wed, Jul 27
76 °FMild.5 mph85%29.90 "HgN/A
10:00 PM75 °FMild.5 mph86%29.90 "HgN/A
9:00 PM75 °FOvercast.6 mph85%29.90 "Hg12 mi
Weather by CustomWeather, © 2016

See weather overviewHow to use our weather pages